Tracking 19854 objects as of 23-Sep-2019
HD Live streaming from Space Station
objects crossing your sky now

METEOR 1-10 DEB

Track METEOR 1-10 DEB now!
10-day predictions


NORAD ID: 43292
Int'l Code: 1971-120W
Perigee: 663.8 km
Apogee: 696.2 km
Inclination: 81.2 °
Period: 98.2 minutes
Semi major axis: 7050 km
RCS: Unknown
Launch date: December 29, 1971
Source: Commonwealth of Independent States (former USSR) (CIS)
Launch site: PLESETSK MISSILE AND SPACE COMPLEX (PKMTR)

Note: This is SATELLITE DEBRIS
aabbcc
Your satellite tracking list
Your tracking list is empty




NASA's NSSDC Master Catalog

Two Line Element Set (TLE):
1 43292U 71120W   19265.30742012  .00002744  00000-0  49257-3 0  9990
2 43292  81.2319  23.1015 0022935 107.5374 252.8336 14.66318511248162
Source of the keplerian elements: AFSPC